Cloud_Cover
5 4 70 10 5 0 0 3 21 12 8 98 49 65 46 5 5 0 0 0 0 0 0 5 0 0 4 0 0 0 0 0 0 0 0 0 0 0 0 0 0 0 0 0 0 0 0 0 0
5 7 100 94 26 0 0 0 5 64 33 82 100 100 56 5 0 0 0 0 0 0 0 0 4 1 3 5 2 0 0 0 0 0 0 0 0 0 0 0 0 0 0 0 0 4 0 0 0
5 3 7 57 5 0 0 0 0 1 14 52 28 48 41 5 0 0 0 0 0 0 0 0 0 2 5 5 5 5 2 2 0 0 0 0 0 0 0 0 0 0 0 0 0 0 0 0 0
5 2 5 3 4 5 2 4 5 1 5 50 100 99 24 6 2 0 3 2 0 0 0 39 0 0 0 5 5 14 68 5 5 0 0 0 0 0 0 0 0 0 0 0 0 0 0 0 0
5 5 5 5 5 5 4 1 0 6 28 9 5 4 2 4 2 0 0 0 0 0 0 0 1 0 0 0 3 5 13 77 61 99 50 28 3 0 0 0 0 0 0 0 2 86 0 0 0
15 7 7 5 5 5 1 4 5 5 7 6 8 10 5 0 0 0 0 0 0 0 0 0 11 0 0 0 0 5 43 46 95 14 32 87 98 25 2 0 0 0 0 0 0 0 0 0 0
42 43 5 5 4 4 5 7 5 5 5 5 5 4 0 2 2 0 0 2 12 0 0 4 0 4 23 1 39 94 12 77 100 8 5 5 61 100 53 2 2 5 5 5 0 0 0 0 0
22 49 6 5 7 6 5 5 5 4 3 94 96 5 5 5 4 15 47 76 22 0 0 0 5 23 15 6 7 38 8 5 19 39 40 5 6 8 98 70 5 5 5 5 5 4 0 0 0
5 5 15 5 5 5 5 5 5 3 2 5 5 5 5 5 3 4 74 48 79 22 0 0 0 0 11 18 6 40 12 5 12 35 100 80 37 5 43 87 100 35 37 26 6 4 0 0 9
5 29 6 25 10 26 5 5 5 4 4 4 5 5 5 3 5 5 79 46 100 100 62 5 12 12 70 76 100 100 40 99 87 69 100 100 96 94 40 70 100 88 99 69 41 5 3 53 26
38 47 27 74 9 5 5 5 5 75 3 5 5 12 24 5 5 5 42 86 86 100 100 100 100 28 21 11 19 77 89 86 92 94 100 100 100 100 100 97 64 36 19 18 43 50 47 56 45
47 17 34 6 5 5 5 52 5 71 90 82 5 1 4 5 95 100 100 100 92 92 99 81 80 43 21 18 37 76 68 100 100 92 100 100 100 100 100 100 100 100 100 100 100 87 52 55 81
5 65 91 60 5 5 50 98 10 18 4 5 4 2 4 34 59 57 90 90 85 93 37 5 5 31 36 46 77 80 87 100 100 100 100 100 100 100 100 100 100 100 100 100 100 53 80 100 100
15 9 10 34 5 5 80 100 100 97 71 81 55 30 3 65 9 5 5 68 93 91 58 24 53 100 100 99 74 79 77 91 100 100 100 100 100 100 100 100 100 100 100 100 64 100 100 100 100
96 22 15 60 9 5 5 67 100 100 100 100 100 100 93 74 97 100 100 6 2 4 6 11 100 37 100 100 77 84 27 100 100 97 100 100 100 98 84 68 100 100 93 100 100 100 100 100 100
29 12 74 18 5 3 5 18 100 100 100 100 100 100 100 100 100 94 16 5 5 20 28 52 100 98 100 100 100 98 86 88 94 96 100 100 100 100 100 100 100 100 100 100 85 96 100 100 100
52 94 85 100 80 5 5 5 100 100 67 100 100 100 100 100 100 100 100 38 15 40 97 100 100 100 100 100 100 62 36 2 7 5 1 4 1 2 4 22 63 100 100 100 100 99 100 100 100
54 15 60 35 8 5 22 5 45 99 99 100 100 72 99 100 100 100 100 64 13 51 100 100 100 100 100 100 97 51 22 0 0 0 0 0 0 0 0 4 5 34 20 100 100 100 100 100 100
5 5 5 21 5 5 5 5 5 5 32 85 100 100 100 100 100 100 100 97 66 32 48 92 100 100 100 100 73 6 0 0 0 0 0 0 0 2 5 5 5 5 62 95 5 95 100 100 100
6 5 12 29 7 5 5 5 5 100 100 100 100 100 100 100 100 96 64 75 40 13 41 100 100 100 100 100 94 42 30 30 8 5 4 5 43 50 28 50 61 84 51 63 32 4 6 99 95
6 17 5 5 5 5 5 5 43 71 86 100 100 100 100 100 100 100 100 95 85 98 95 99 100 100 100 100 100 82 10 99 86 73 5 14 54 72 83 100 100 100 100 100 100 87 34 25 100
56 6 5 5 5 5 35 5 5 5 24 91 93 100 100 100 100 100 100 100 96 63 91 56 56 100 100 100 100 66 79 63 99 100 82 59 64 97 100 100 100 100 100 100 100 100 100 100 50
100 100 46 7 32 37 70 30 31 12 10 96 100 100 94 99 100 92 100 81 100 100 62 11 100 49 97 100 99 88 41 87 100 100 100 100 98 100 100 100 100 100 100 100 100 100 100 100 100
82 94 91 43 13 39 12 5 12 37 18 100 90 90 73 97 100 100 100 100 100 100 100 100 84 96 59 88 97 74 99 100 100 100 100 100 100 100 100 100 100 100 100 100 100 100 100 100 100
70 59 50 40 83 9 5 10 6 36 84 35 49 90 100 100 100 100 100 100 100 96 78 96 92 100 100 100 100 100 100 100 100 100 100 100 100 100 100 100 100 100 100 100 100 100 100 100 100
64 5 43 7 27 5 5 5 5 58 100 67 57 60 99 100 100 100 91 77 78 84 84 75 100 95 100 99 100 100 100 100 100 100 100 100 100 100 100 100 100 100 100 100 100 100 100 100 100
62 91 8 27 78 84 23 4 65 89 100 80 86 94 100 100 100 100 100 100 100 96 100 100 100 100 100 100 100 100 100 100 100 100 100 100 100 100 100 100 100 100 100 100 100 100 100 100 100
88 10 58 85 69 99 5 1 0 100 100 100 100 100 100 100 100 100 79 91 100 89 100 100 100 100 100 100 100 100 100 100 100 100 100 100 100 100 100 100 100 100 100 100 100 100 100 100 100
67 43 67 75 97 66 55 1 0 2 12 100 100 100 100 95 82 42 49 56 87 77 100 100 100 100 100 100 100 100 100 100 100 100 100 100 100 100 100 100 100 100 100 100 100 100 100 100 100
62 18 45 100 92 99 100 4 0 5 3 98 100 100 100 100 32 5 15 48 100 100 100 100 100 100 100 100 100 100 100 100 100 100 100 100 100 100 100 100 100 100 100 100 100 100 100 100 100